Le nostre stazioni meteo in Italia

Pubblicità
Il mio iltempo24.it
Brescia/Ghedi, Italia (16088): Temperatura & dewpoint: 12.03.2019 20:00:00 - 18.03.2019 20:00:00 (CET)Brescia/Ghedi, Italia (16088): velocità del vento: 12.03.2019 20:00:00 - 18.03.2019 20:00:00 (CET)Brescia/Ghedi, Italia (16088): direzione del vento: 12.03.2019 20:00:00 - 18.03.2019 20:00:00 (CET)Brescia/Ghedi, Italia (16088): reduced air pressure: 12.03.2019 20:00:00 - 18.03.2019 20:00:00 (CET)Brescia/Ghedi, Italia (16088): visibility: 12.03.2019 20:00:00 - 18.03.2019 20:00:00 (CET)
Data & Tempo tt [°C] td [°C] ff [km/h] ff [kn] dd ppp [hPa] vv [km]
18.03.2019 20:00:00 - - - - - - -
18.03.2019 19:00:00 10,0 6,2 28 15 SE 1017,1 20
18.03.2019 18:00:00 11,4 5,3 21 11 SE 1015,8 30
18.03.2019 17:00:00 13,4 4,3 15 8 SSE 1014,7 30
18.03.2019 16:00:00 14,0 2,6 8 4 ESE 1014,5 30
18.03.2019 15:00:00 14,0 2,9 11 6 ESE 1014,6 30
18.03.2019 14:00:00 13,6 3,9 4 2 O 1014,8 30
18.03.2019 13:00:00 13,0 5,4 8 4 SSO 1015,0 30
18.03.2019 12:00:00 12,0 5,9 8 4 SSE 1014,8 30
18.03.2019 11:00:00 11,4 7,7 5 3 SSO 1014,3 30
18.03.2019 10:00:00 9,0 7,4 8 4 NO 1013,9 30
18.03.2019 09:00:00 8,2 7,1 9 5 NNO 1012,9 20
18.03.2019 08:00:00 7,9 6,0 16 9 ENE 1011,6 15
18.03.2019 07:00:00 9,0 7,6 22 12 E 1010,8 10
18.03.2019 06:00:00 9,2 9,2 5 3 SO 1009,8 6
18.03.2019 05:00:00 10,2 10,2 16 9 O 1009,6 4,5
18.03.2019 04:00:00 10,2 10,2 15 8 O 1009,6 6
18.03.2019 03:00:00 10,9 10,0 9 5 ENE 1009,7 10
18.03.2019 02:00:00 10,9 9,8 9 5 ENE 1009,7 10
18.03.2019 01:00:00 11,2 9,1 4 2 E 1010,1 10
18.03.2019 00:00:00 12,0 9,4 2 1 SE 1010,6 10
17.03.2019 23:00:00 12,2 9,2 4 2 NO 1011,3 10
17.03.2019 22:00:00 12,0 9,4 5 3 O 1011,6 7
17.03.2019 21:00:00 12,4 9,2 4 2 O 1011,6 6
17.03.2019 20:00:00 13,1 9,4 4 2 OSO 1012,0 4,0
17.03.2019 19:00:00 13,8 9,7 4 2 O 1012,1 4,0
17.03.2019 18:00:00 14,0 9,2 5 3 O 1012,3 4,0
17.03.2019 17:00:00 15,0 10,0 8 4 O 1012,4 4,0
17.03.2019 16:00:00 14,9 10,1 4 2 ONO 1012,9 4,0
17.03.2019 15:00:00 14,0 9,7 2 1 SE 1013,7 4,0
17.03.2019 14:00:00 14,0 10,0 4 2 SSO 1014,5 4,0
17.03.2019 13:00:00 14,0 10,2 9 5 SE 1015,0 5
17.03.2019 12:00:00 14,0 10,0 11 6 ESE 1015,7 5
17.03.2019 11:00:00 12,8 9,1 11 6 SE 1016,0 5
17.03.2019 10:00:00 11,0 8,9 11 6 ESE 1016,1 4,0
17.03.2019 09:00:00 9,0 8,2 8 4 ESE 1016,2 4,0
17.03.2019 08:00:00 7,0 7,0 4 2 NE 1016,3 3,5
17.03.2019 07:00:00 5,4 5,4 8 4 ENE 1016,2 3,0
17.03.2019 06:00:00 6,0 5,7 4 2 N 1015,8 3,5
17.03.2019 05:00:00 8,0 7,2 9 5 E 1015,7 5
17.03.2019 04:00:00 8,2 7,3 9 5 E 1015,9 5
17.03.2019 03:00:00 8,4 7,5 9 5 ENE 1016,1 5
17.03.2019 02:00:00 8,5 7,0 8 4 ENE 1016,2 7
17.03.2019 01:00:00 9,0 7,1 9 5 NE 1016,2 7
17.03.2019 00:00:00 9,5 7,6 8 4 E 1016,0 7
16.03.2019 23:00:00 10,4 7,3 11 6 E 1015,9 7
16.03.2019 22:00:00 10,5 7,0 13 7 ESE 1015,3 8
16.03.2019 21:00:00 12,2 7,5 15 8 ENE 1014,5 8
16.03.2019 20:00:00 12,4 7,1 15 8 ENE 1013,8 8
16.03.2019 19:00:00 14,0 7,3 16 9 ENE 1013,4 7
16.03.2019 18:00:00 16,2 7,9 15 8 ENE 1012,9 8
16.03.2019 17:00:00 18,8 8,2 15 8 ENE 1012,4 10
16.03.2019 16:00:00 21,0 9,3 8 4 OSO 1012,5 10
16.03.2019 15:00:00 20,0 9,6 8 4 O 1012,7 10
16.03.2019 14:00:00 18,4 8,9 5 3 ONO 1013,5 10
16.03.2019 13:00:00 16,8 9,0 9 5 ONO 1014,5 8
16.03.2019 12:00:00 15,0 8,7 5 3 O 1014,8 8
16.03.2019 11:00:00 13,9 8,5 4 2 SO 1014,7 8
16.03.2019 10:00:00 12,0 8,3 4 2 SE 1014,8 8
16.03.2019 09:00:00 10,0 8,3 5 3 SSE 1014,7 7
16.03.2019 08:00:00 5,2 5,2 5 3 E 1013,6 7
16.03.2019 07:00:00 4,8 4,8 5 3 ENE 1013,0 7
16.03.2019 06:00:00 5,0 4,7 4 2 NNE 1012,9 10
16.03.2019 05:00:00 5,0 4,7 5 3 ENE 1012,9 10
16.03.2019 04:00:00 5,5 4,9 2 1 E 1012,9 10
16.03.2019 03:00:00 6,5 5,6 5 3 NNE 1012,9 10
16.03.2019 02:00:00 7,0 5,8 5 3 NNE 1012,9 10
16.03.2019 01:00:00 8,0 5,6 5 3 ESE 1013,7 10
16.03.2019 00:00:00 9,2 6,5 8 4 ENE 1012,7 10
15.03.2019 23:00:00 10,0 5,8 11 6 E 1011,9 10
15.03.2019 22:00:00 11,0 3,8 5 3 E 1011,7 10
15.03.2019 21:00:00 15,0 5,5 8 4 O 1010,9 10
15.03.2019 20:00:00 15,5 6,0 8 4 SSO 1010,5 10
15.03.2019 19:00:00 16,0 6,4 4 2 SSE 1010,0 10
15.03.2019 18:00:00 17,2 6,1 4 2 SSO 1009,6 20
15.03.2019 17:00:00 18,8 7,3 5 3 SSO 1009,4 20
15.03.2019 16:00:00 18,8 7,3 9 5 ONO 1009,3 20
15.03.2019 15:00:00 17,2 7,0 8 4 NNO 1009,4 15
15.03.2019 14:00:00 16,0 6,7 8 4 ONO 1010,0 15
15.03.2019 13:00:00 15,2 6,7 4 2 NNE 1010,5 10
15.03.2019 12:00:00 13,8 6,7 5 3 SO 1011,0 10
15.03.2019 11:00:00 13,0 7,0 9 5 ESE 1011,1 10
15.03.2019 10:00:00 11,0 6,9 15 8 E 1010,8 10
15.03.2019 09:00:00 8,2 5,7 11 6 ENE 1010,5 7
15.03.2019 08:00:00 6,0 4,0 5 3 ESE 1010,1 10
15.03.2019 07:00:00 5,2 2,7 11 6 NE 1009,5 20
15.03.2019 06:00:00 4,8 1,5 4 2 SO 1009,2 20
15.03.2019 05:00:00 7,0 2,3 4 2 S 1008,5 20
15.03.2019 04:00:00 7,0 1,7 4 2 SSO 1008,3 20
15.03.2019 03:00:00 6,4 -0,1 11 6 O 1008,1 20
15.03.2019 02:00:00 9,0 0,9 16 9 ONO 1008,0 20
15.03.2019 01:00:00 10,0 1,1 18 10 ONO 1007,9 20
15.03.2019 00:00:00 10,2 -0,3 22 12 ONO 1008,2 20
14.03.2019 23:00:00 8,2 -2,4 11 6 ONO 1008,6 10
14.03.2019 22:00:00 9,4 -2,9 5 3 O 1008,8 10
14.03.2019 21:00:00 10,2 -2,8 2 1 SO 1008,7 10
14.03.2019 20:00:00 12,0 -1,9 8 4 OSO 1008,9 10
14.03.2019 19:00:00 12,0 -2,2 5 3 O 1008,9 10
14.03.2019 18:00:00 13,0 -1,7 9 5 ONO 1008,8 10
14.03.2019 17:00:00 13,8 -0,3 13 7 O 1009,8 10
14.03.2019 16:00:00 14,0 0,6 15 8 OSO 1010,8 10
14.03.2019 15:00:00 14,5 2,7 15 8 O 1011,6 10
14.03.2019 14:00:00 14,0 3,8 11 6 ONO 1012,9 10
14.03.2019 13:00:00 12,2 4,7 13 7 ONO 1014,3 10
14.03.2019 12:00:00 10,8 5,1 5 3 SSO 1015,1 10
14.03.2019 11:00:00 10,0 4,8 8 4 O 1015,5 10
14.03.2019 10:00:00 8,5 4,3 8 4 OSO 1015,5 10
14.03.2019 09:00:00 6,0 4,5 4 2 O 1015,5 6
14.03.2019 08:00:00 3,0 2,3 5 3 O 1015,7 5
14.03.2019 07:00:00 2,0 0,2 2 1 SSO 1015,8 5
14.03.2019 06:00:00 1,0 0,3 4 2 N 1015,6 6
14.03.2019 05:00:00 0,8 0,2 5 3 ENE 1015,7 8
14.03.2019 04:00:00 1,0 0,7 4 2 S 1015,6 10
14.03.2019 03:00:00 1,2 0,9 4 2 NO 1015,8 10
14.03.2019 02:00:00 2,0 1,6 4 2 ONO 1015,2 10
14.03.2019 01:00:00 2,8 2,5 4 2 NO 1015,2 10
14.03.2019 00:00:00 3,0 2,4 2 1 O 1015,1 10
13.03.2019 23:00:00 4,0 3,3 2 1 SSO 1014,8 10
13.03.2019 22:00:00 4,8 3,6 2 1 SSO 1013,9 10
13.03.2019 21:00:00 5,2 3,4 5 3 NE 1012,9 20
13.03.2019 20:00:00 7,4 4,9 5 3 SE 1012,8 20
13.03.2019 19:00:00 8,4 4,6 11 6 ESE 1012,5 15
13.03.2019 18:00:00 10,0 4,2 13 7 ESE 1012,1 10
13.03.2019 17:00:00 11,0 3,1 15 8 ESE 1011,6 15
13.03.2019 16:00:00 11,2 3,0 15 8 ESE 1011,6 15
13.03.2019 15:00:00 11,0 2,8 11 6 ESE 1012,0 15
13.03.2019 14:00:00 10,6 2,4 16 9 SE 1012,5 15
13.03.2019 13:00:00 10,0 2,4 13 7 ESE 1013,1 15
13.03.2019 12:00:00 9,2 1,8 13 7 SE 1014,0 15
13.03.2019 11:00:00 9,0 2,6 11 6 S 1014,0 20
13.03.2019 10:00:00 9,0 1,4 9 5 S 1014,1 20
13.03.2019 09:00:00 8,4 1,3 9 5 NNE 1014,1 20
13.03.2019 08:00:00 5,2 0,4 5 3 NNE 1015,0 20
13.03.2019 07:00:00 2,0 -2,7 4 2 N 1015,9 20
13.03.2019 06:00:00 1,2 -4,7 5 3 NNE 1016,0 20
13.03.2019 05:00:00 1,6 -5,1 4 2 NE 1016,1 20
13.03.2019 04:00:00 4,4 -4,3 5 3 SO 1017,4 20
13.03.2019 03:00:00 4,4 -4,3 5 3 SO 1017,4 20
13.03.2019 02:00:00 5,0 -4,8 4 2 OSO 1018,9 20
13.03.2019 01:00:00 6,0 -4,5 8 4 O 1019,2 20
13.03.2019 00:00:00 6,0 -5,3 4 2 O 1020,0 20
12.03.2019 23:00:00 5,4 -6,5 4 2 SO 1020,2 20
12.03.2019 22:00:00 5,4 -7,4 2 1 O 1021,0 20
12.03.2019 21:00:00 6,0 -8,3 4 2 N 1021,0 20
12.03.2019 20:00:00 10,0 -7,7 2 1 SSO 1020,6 30

tt = Temperatura
td = dewpoint
ff = velocità del vento
dd = direzione del vento
ppp = reduced air pressure
vv = visibility

Stazioni seguenti

WeatherPro
AMSI
MeteoEarth